ONEWEB-0031, 45431

Orbit data source: Space-Track

ONEWEB-0031, 45431 is a payload satellite owned by One Web (UK) in LEO that was launched on Sat, 21 Mar 2020 UTC via a SOYUZ-2-1B launch vehicle from the Tyuratam Missile And Space Complex (TTMTR). Payload-class satellites include a variety of spacecraft equipped with specific instruments for various scientific and technological missions. These include communications satellites like Starlink; space stations such as the ISS; scientific satellites like the Hubble; Earth observation satellites from companies like Planet Labs, Umbra, and HawkEye 360; GPS; miniature CubeSats for education and research; and military/defense satellites.

Loading next visibility...
Identifier
45431, 2020-020H
Orbit
LEO
Country
Flag of UKUK
Related business
Manufacturer
One Web
Mission
Operational Commercial Communications
Bus & Motor
ARROW, Unknown motor
Mass
148 kg wet, ~140 kg dry
Launch date (UTC)
2020-03-21 (6 years ago)
Launch vehicle
SOYUZ-2-1B
Launch site
Tyuratam Missile And Space Complex (TTMTR)
Object type
Payload
Rocket body
Debris
Shape & HBR
Trap Box + 2 Pan, 6.7 m
Radar Cross Section
3.464 m², Medium (>0.1 m² and < 1m²)

Expand to show TLE details & history
Last TLE update: 15 hours ago

TLE from 15 hours ago
0 ONEWEB-0031
1 45431U 20020H   25350.22771648 -.00000555  00000-0 -16011-2 0  9991
2 45431  87.8856  57.5159 0001650  96.7714 263.3602 13.11417358278675
Epoch: 2025-12-16T05:27Z
TLE epoch observation values (Epoch: 2025-12-16T05:27:54.703Z)
Latitude
-0.00001°
Longitude
-109.57698°
Altitude
1,220.715 km
Speed
7.244 km/s
True Right ascension
03h 50m 03s
True Declination
0° 00' 00"
Sunlit
Object was in full shadow at epoch
Visualization orbit readout
Latitude
Unknown
Longitude
Unknown
Altitude
Unknown
Speed
Unknown
Apparent Right ascension
Unknown
Apparent Declination
Unknown
Sunlit
N/A
Visualization observer readout
Local Sidereal Time
19:11:28
Azimuth
Unknown
Elevation
Unknown
Doppler factor
Unknown
Orbital elements
Apogee altitude
1,216.052 km
Perigee altitude
1,213.547 km
Semi-major axis
7,592.936 km
Eccentricity
0.00017
Inclination
87.8856°
RAAN
57.5159°
Arg. of periapsis
96.7714°
True anomaly
263.34142°
Mean anomaly
263.3602°
Eccentric anomaly
263.35081°
Mean motion
3.28041 °/min
Orbital period
109.74 mins
BSTAR
-0.0016011
Loading maneuver chart data...
Computing Atmospheric mass density...
Loading historical data...
Loading historical data...
Loading historical data...
Loading historical data...
Loading historical data...
Loading historical data...
Loading historical data...

Documentation

Showing up to 5 results
|